Lid_Strength_Index
1 2 3 6 12 14 17 14 10 10 9 8 6 7 8 7 8 11 2 1 1 1 -0 -0 -0 -0 -0 -1 -1 -1 -1 -1 -1 -1 -1 -1 -1 -1 -1 -1 -1 -1 -1 -1 -1 -1 -1 -1 -1
3 3 5 8 15 18 16 11 10 9 7 6 5 7 7 7 4 4 3 1 0 0 -0 -0 -0 -0 -0 -0 -0 -1 -1 -1 -1 -1 -1 -1 -1 -1 -1 -1 -1 -1 -1 -1 -1 -1 -1 -1 -1
4 4 9 12 15 16 16 11 9 7 6 7 7 7 6 5 4 3 2 1 0 0 -0 -0 -0 -0 -0 -0 -0 -0 -0 -0 -1 -1 -1 -1 -1 -1 -1 -1 -1 -1 -1 -1 -1 -1 -1 -1 -1
6 7 9 14 15 13 12 10 9 8 7 7 8 7 5 3 3 2 1 0 1 1 -0 0 0 -0 -0 -0 -0 -0 -0 -0 -0 -0 -1 -1 -1 -1 -1 -1 -1 -1 -1 -1 -1 -1 -1 -1 -1
9 10 14 15 14 12 10 9 8 8 8 7 7 8 7 4 2 1 2 1 1 1 0 -0 0 -0 -0 -0 -0 -0 -0 0 -0 -0 -0 -1 -1 -1 -1 -1 -1 -1 -1 -1 -1 -1 -1 -1 -1
12 11 16 15 13 11 9 8 8 8 7 7 8 8 8 4 3 2 1 1 1 1 1 -0 -0 -0 -0 -0 -0 -0 0 0 0 -0 -0 -1 -0 -0 -1 -1 -1 -1 -1 -1 -1 -0 -1 -1 -1
12 13 14 14 13 11 9 7 8 8 8 8 6 8 7 4 2 2 1 1 1 0 1 1 0 -0 0 0 0 0 0 0 0 0 -0 -0 0 0 -0 -1 -1 -1 -1 -1 -1 -0 -1 -1 -1
9 11 13 12 13 12 8 7 7 8 9 5 6 9 9 4 3 2 2 1 1 1 1 1 1 0 0 0 0 0 0 0 -0 -0 0 1 1 -0 -1 -0 -0 -1 -1 -1 -1 -1 -1 -1 -0
7 12 13 12 11 10 8 9 7 7 8 7 6 6 3 2 2 4 4 3 2 1 1 1 1 0 0 0 -0 -0 -0 -0 0 0 1 1 1 0 0 1 -0 -1 -1 -1 -1 -1 -0 -0 -0
12 13 12 9 9 9 8 9 9 9 8 8 8 6 3 3 3 4 4 5 3 3 2 1 1 1 1 -0 0 0 0 0 0 0 1 1 1 1 0 1 -1 -1 -1 -1 -1 -1 -0 -0 1
12 14 11 9 7 7 8 9 9 10 10 8 8 7 6 4 4 4 4 3 3 2 2 1 1 1 1 1 1 0 0 0 0 0 1 1 1 1 0 0 -0 -0 -1 -0 -1 -0 -1 -0 1
12 10 10 9 8 8 9 8 9 9 9 8 8 7 7 7 5 5 4 4 3 2 2 1 1 1 1 2 1 1 1 1 0 1 0 1 1 1 2 2 1 0 -0 -0 -0 -0 -0 0 0
12 10 9 9 8 9 8 9 9 9 8 8 7 7 8 7 6 5 4 4 3 3 2 1 1 1 1 2 2 2 1 1 1 1 1 0 1 1 1 2 1 0 -0 -0 0 -0 -0 0 0
10 10 10 9 9 9 9 10 10 9 8 8 7 7 7 6 6 7 6 5 4 2 2 1 2 1 1 2 2 1 2 2 1 1 1 0 1 1 1 1 1 0 0 -0 -0 0 0 1 0
9 11 10 10 10 10 9 11 10 8 8 8 8 6 6 6 5 6 5 6 5 2 2 2 1 1 1 2 2 2 2 2 2 1 1 1 1 1 1 1 0 0 0 0 0 1 1 0 -0
11 11 14 11 10 9 10 13 10 8 8 8 8 7 7 5 5 5 5 4 4 3 2 1 1 1 2 2 2 2 2 2 2 1 1 1 1 0 1 1 1 1 1 1 1 1 1 1 1
12 15 14 12 9 10 11 12 10 8 8 8 9 8 8 7 5 5 4 3 3 4 2 2 2 2 2 2 2 2 2 2 2 2 1 1 1 1 1 1 1 1 0 1 1 1 1 1 1
15 15 14 14 12 10 12 12 10 9 9 9 9 8 7 7 6 4 4 3 3 4 2 2 2 2 2 2 2 3 1 1 2 2 1 0 1 1 2 2 1 1 1 2 1 1 1 1 1
11 12 13 11 10 11 12 12 11 9 8 8 8 7 7 6 5 4 4 3 4 4 2 2 2 2 2 2 3 3 2 1 3 2 2 2 2 1 2 1 1 1 1 1 1 1 1 2 2
11 12 13 11 10 10 12 12 11 8 8 8 7 6 6 6 5 4 4 5 5 3 2 2 2 2 2 2 3 4 2 1 2 3 2 1 1 1 2 1 1 1 1 1 1 1 2 2 2
10 12 12 12 10 10 11 13 11 8 7 7 6 6 6 6 6 5 5 5 4 3 3 2 2 2 2 3 3 3 2 2 3 2 1 1 0 1 1 1 1 1 1 1 1 1 2 3 2
12 9 9 11 12 15 11 17 12 9 9 8 6 6 7 6 5 4 5 5 4 3 2 2 2 2 2 3 3 3 3 4 3 2 1 1 1 1 1 1 1 1 1 1 1 1 1 2 3
10 8 9 10 12 13 12 15 13 10 10 9 9 7 6 7 7 6 6 5 3 3 3 2 2 2 2 3 3 3 3 3 3 2 2 2 1 1 1 1 1 1 1 1 1 1 2 2 2
7 9 10 10 12 17 13 15 15 12 10 10 9 7 7 6 5 5 5 3 4 3 3 2 3 2 2 3 3 3 3 3 3 3 3 3 2 2 1 1 1 0 1 1 1 1 1 2 2
9 12 18 18 18 18 12 14 14 11 10 9 9 8 7 7 8 7 7 7 5 6 3 3 3 3 3 3 3 3 3 3 3 3 3 2 3 3 3 1 1 1 1 1 1 1 2 2 2
11 12 18 21 20 18 12 16 15 10 8 7 7 7 8 9 9 9 9 9 8 5 3 3 3 3 3 3 3 2 2 3 2 2 2 2 2 2 2 1 1 1 1 2 1 2 2 2 2
11 13 10 15 14 17 14 12 11 9 9 8 8 8 9 10 10 10 9 9 9 4 4 3 3 3 3 2 2 2 3 2 2 2 2 2 2 1 2 2 1 1 2 2 2 2 2 2 2
9 9 16 16 21 22 16 17 17 13 11 9 9 9 10 10 10 10 10 10 9 8 4 4 3 3 2 2 2 2 2 2 2 1 2 2 1 1 2 2 2 2 2 2 2 3 2 2 2
11 12 12 13 15 20 21 19 12 12 10 10 9 10 10 11 11 12 11 11 10 9 8 7 3 3 3 3 2 2 2 1 1 1 1 1 1 1 2 2 2 2 3 3 2 3 2 3 3
9 11 12 16 17 16 17 18 10 10 9 8 9 10 11 11 11 12 12 12 12 11 10 9 7 4 4 3 3 2 2 2 2 2 2 1 1 1 1 1 2 2 3 3 3 3 3 3 3